云遥一号 19星 (YUNYAO-1 19)

导读

YUNYAO-1 19是中国于北京时间2024年1月11日08:00发射的卫星,该卫星属于“云遥一号”卫星系列,这类卫星通常具备高分辨率对地观测能力,可在环境监测、自然资源勘探、灾害预警评估等领域提供遥感数据支持,服务于国民经济建设与科学研究等多个场景,目前已在轨运行超两年,持续完成既定任务。

基本信息
目录编号:
58759
目录名称:
YUNYAO-1 19
国际标识:
2024-009B
轨道中心:
EARTH
卫星名称:
云遥一号 19星
卫星全名:
云遥一号 19星 (YUNYAO-1 19)
卫星状态:
在轨 (已飞行883 天)
发射日期:
2024-01-11 UTC
国别 :
中国 (CN)
星等 :
--
轨道信息
数据来源 国际轨道数据
星历时间: 2026-06-12T14:30:54+0800
13小时前
查看轨道信息
半长轴: 6890.34km
偏心率: 0.0005471
轨道倾角: 49.981°
近地点辐角 273.902°
升交点赤经 191.513°
平近点角 86.130°
近地点: 508.433km
远地点: 515.973km
周期: 94.868分钟
每日圈数: 15.178955
详细信息
覆盖范围:
全球
运营商:
天津云遥宇航科技有限公司
运营商所在国:
中国
使用方式:
暂无
卫星简介
云遥一号星座由天津云遥宇航科技有限公司研发,主要用于气象和空间遥感探测。该星座具有研制周期短、集成度高、体积小、重量轻、性价比高等特点,是航天领域自动化测试、流水线总装、批量化生产的典型应用。该卫星仍在工作。
2D轨道图
3D轨道图
轨道高度分析图
轨道倾角分析图
轨道综合分析图
查看轨道综合分析图